Location: Chèvreville
(49.1099°N, 2.8495°E)
Time: 07:06:54
(UTC+00:00)

Cosmos 1607 - Visible Passes

Search period start: 24 September 2023 00:00
Search period end: 04 October 2023 00:00
Orbit: 910 x 991 km, 65.0° (Epoch: 24 September)

Date Brightness Start Highest point End Pass type
(mag) Time Alt. Az. Time Alt. Az. Time Alt. Az.
24 Sep 6.4 19:11:52 10° WNW 19:16:29 21° WSW 19:21:05 10° SSW visible
25 Sep 6.8 19:31:44 10° W 19:34:03 12° WSW 19:36:21 10° WSW visible
27 Sep 6.4 18:18:39 10° WNW 18:23:42 24° WSW 18:28:43 10° SSW visible
28 Sep 6.8 18:37:58 10° WNW 18:41:18 15° WSW 18:44:38 10° SW visible
